Time,TemperatureF,DewpointF,PressureIn,WindDirection,WindDirectionDegrees,WindSpeedMPH,WindSpeedGustMPH,Humidity,HourlyPrecipIn,Conditions,Clouds,dailyrainin,SoftwareType,DateUTC
2013-03-13 00:00:00,49.6,45.0,29.88,North,357,0.0,0.0,84,0.00,,---,0.00,VWS V14.01,2013-03-13 07:00:00,
2013-03-13 00:06:00,49.6,45.0,29.88,North,357,0.0,0.0,84,0.00,,---,0.00,VWS V14.01,2013-03-13 07:06:00,
2013-03-13 00:12:00,49.6,45.0,29.88,North,357,0.0,0.0,84,0.00,,---,0.00,VWS V14.01,2013-03-13 07:12:00,
2013-03-13 00:18:00,49.6,45.0,29.88,North,357,0.0,0.0,84,0.00,,---,0.00,VWS V14.01,2013-03-13 07:18:00,
2013-03-13 00:24:00,49.6,45.0,29.88,North,357,0.0,0.0,84,0.00,,---,0.00,VWS V14.01,2013-03-13 07:24:00,
2013-03-13 00:30:00,49.6,45.0,29.88,North,357,0.0,0.0,84,0.00,,---,0.00,VWS V14.01,2013-03-13 07:30:00,
2013-03-13 00:36:00,49.6,45.0,29.88,North,357,0.0,0.0,84,0.00,,---,0.00,VWS V14.01,2013-03-13 07:36:00,
2013-03-13 00:42:00,49.5,44.8,29.88,North,357,0.0,0.0,84,0.00,,---,0.00,VWS V14.01,2013-03-13 07:42:00,
2013-03-13 00:48:00,49.6,45.0,29.88,North,357,0.0,0.0,84,0.00,,---,0.00,VWS V14.01,2013-03-13 07:48:00,
2013-03-13 00:54:00,49.6,45.0,29.88,North,357,0.0,0.0,84,0.00,,---,0.00,VWS V14.01,2013-03-13 07:54:00,
2013-03-13 01:00:00,49.6,45.3,29.88,North,357,0.0,0.0,85,0.00,,---,0.00,VWS V14.01,2013-03-13 08:00:00,
2013-03-13 01:06:00,49.6,45.3,29.88,North,357,0.0,0.0,85,0.00,,---,0.00,VWS V14.01,2013-03-13 08:06:00,
2013-03-13 01:12:00,49.6,45.3,29.91,North,357,0.0,0.0,85,0.00,,---,0.00,VWS V14.01,2013-03-13 08:12:00,
2013-03-13 01:18:00,49.6,45.3,29.91,North,357,0.0,0.0,85,0.00,,---,0.00,VWS V14.01,2013-03-13 08:18:00,
2013-03-13 01:24:00,49.5,45.2,29.91,North,357,0.0,0.0,85,0.00,,---,0.00,VWS V14.01,2013-03-13 08:24:00,
2013-03-13 01:30:00,49.5,45.2,29.91,North,357,0.0,0.0,85,0.00,,---,0.00,VWS V14.01,2013-03-13 08:30:00,
2013-03-13 01:36:00,49.5,45.2,29.91,North,357,0.0,0.0,85,0.00,,---,0.00,VWS V14.01,2013-03-13 08:36:00,
2013-03-13 01:42:00,49.5,45.2,29.91,North,357,0.0,0.0,85,0.04,,---,0.04,VWS V14.01,2013-03-13 08:42:00,
2013-03-13 01:48:00,49.5,45.2,29.91,North,3,0.0,0.0,85,0.04,,---,0.04,VWS V14.01,2013-03-13 08:48:00,
2013-03-13 01:56:00,49.6,45.3,29.91,NE,39,0.0,2.7,85,0.04,,---,0.04,VWS V14.01,2013-03-13 08:56:00,
2013-03-13 02:02:00,49.6,45.3,29.91,NE,39,0.0,0.0,85,0.04,,---,0.04,VWS V14.01,2013-03-13 09:02:00,
2013-03-13 02:08:00,49.6,45.6,29.91,NE,39,0.0,0.0,86,0.04,,---,0.04,VWS V14.01,2013-03-13 09:08:00,
2013-03-13 02:14:00,49.6,45.6,29.91,NE,39,0.0,0.0,86,0.04,,---,0.04,VWS V14.01,2013-03-13 09:14:00,
2013-03-13 02:20:00,49.6,45.6,29.91,NE,40,0.0,0.0,86,0.04,,---,0.04,VWS V14.01,2013-03-13 09:20:00,
2013-03-13 02:26:00,49.6,45.6,29.91,NE,40,0.0,0.0,86,0.04,,---,0.04,VWS V14.01,2013-03-13 09:26:00,
2013-03-13 02:32:00,49.6,45.6,29.91,NE,40,0.0,0.0,86,0.04,,---,0.04,VWS V14.01,2013-03-13 09:32:00,
2013-03-13 02:38:00,49.6,45.6,29.91,NE,40,0.0,0.0,86,0.04,,---,0.04,VWS V14.01,2013-03-13 09:38:00,
2013-03-13 02:44:00,49.6,45.6,29.91,ENE,61,0.0,2.2,86,0.00,,---,0.04,VWS V14.01,2013-03-13 09:44:00,
2013-03-13 02:50:00,49.6,45.6,29.91,NNW,342,0.0,0.0,86,0.00,,---,0.04,VWS V14.01,2013-03-13 09:50:00,
2013-03-13 02:56:00,49.6,45.6,29.91,NNW,342,0.0,0.0,86,0.00,,---,0.04,VWS V14.01,2013-03-13 09:56:00,
2013-03-13 03:02:00,49.6,45.6,29.91,NNW,342,0.0,0.0,86,0.00,,---,0.04,VWS V14.01,2013-03-13 10:02:00,
2013-03-13 03:08:00,49.6,45.6,29.91,NNW,342,0.0,0.0,86,0.00,,---,0.04,VWS V14.01,2013-03-13 10:08:00,
2013-03-13 03:14:00,49.6,45.6,29.91,NNW,342,0.0,0.0,86,0.00,,---,0.04,VWS V14.01,2013-03-13 10:14:00,
2013-03-13 03:20:00,49.6,45.6,29.91,NNW,342,0.0,0.0,86,0.00,,---,0.04,VWS V14.01,2013-03-13 10:20:00,
2013-03-13 03:26:00,49.6,45.6,29.94,NNW,342,0.0,0.0,86,0.00,,---,0.04,VWS V14.01,2013-03-13 10:26:00,
2013-03-13 03:32:00,49.6,45.6,29.94,NNW,342,0.0,0.0,86,0.00,,---,0.04,VWS V14.01,2013-03-13 10:32:00,
2013-03-13 03:38:00,49.6,45.6,29.94,NNW,342,0.0,0.0,86,0.00,,---,0.04,VWS V14.01,2013-03-13 10:38:00,
2013-03-13 03:44:00,49.5,45.5,29.94,NNW,342,0.0,0.0,86,0.00,,---,0.04,VWS V14.01,2013-03-13 10:44:00,
2013-03-13 03:50:00,49.5,45.5,29.94,NNW,342,0.0,0.0,86,0.00,,---,0.04,VWS V14.01,2013-03-13 10:50:00,
2013-03-13 03:56:00,49.5,45.5,29.94,NNW,342,0.0,0.0,86,0.00,,---,0.04,VWS V14.01,2013-03-13 10:56:00,
2013-03-13 04:02:00,49.5,45.5,29.94,NNW,342,0.0,0.0,86,0.00,,---,0.04,VWS V14.01,2013-03-13 11:02:00,
2013-03-13 04:08:00,49.5,45.5,29.94,NNW,342,0.0,0.0,86,0.00,,---,0.04,VWS V14.01,2013-03-13 11:08:00,
2013-03-13 04:14:00,49.5,45.5,29.94,NNW,342,0.0,0.0,86,0.00,,---,0.04,VWS V14.01,2013-03-13 11:14:00,
2013-03-13 04:20:00,49.5,45.5,29.94,North,5,0.0,2.2,86,0.00,,---,0.04,VWS V14.01,2013-03-13 11:20:00,
2013-03-13 04:26:00,49.5,45.5,29.94,North,5,0.0,0.0,86,0.00,,---,0.04,VWS V14.01,2013-03-13 11:26:00,
2013-03-13 04:32:00,49.5,45.5,29.94,North,5,0.0,0.0,86,0.00,,---,0.04,VWS V14.01,2013-03-13 11:32:00,
2013-03-13 04:38:00,49.5,45.5,29.94,North,5,0.0,0.0,86,0.00,,---,0.04,VWS V14.01,2013-03-13 11:38:00,
2013-03-13 04:44:00,49.5,45.5,29.94,North,5,0.0,0.0,86,0.00,,---,0.04,VWS V14.01,2013-03-13 11:44:00,
2013-03-13 04:50:00,49.5,45.5,29.94,North,5,0.0,0.0,86,0.00,,---,0.04,VWS V14.01,2013-03-13 11:50:00,
2013-03-13 04:56:00,49.5,45.5,29.94,North,5,0.0,0.0,86,0.00,,---,0.04,VWS V14.01,2013-03-13 11:56:00,
2013-03-13 05:02:00,49.3,45.3,29.94,North,5,0.0,0.0,86,0.04,,---,0.08,VWS V14.01,2013-03-13 12:02:00,
2013-03-13 05:08:00,49.3,45.3,29.94,North,5,0.0,0.0,86,0.04,,---,0.08,VWS V14.01,2013-03-13 12:08:00,
2013-03-13 05:14:00,49.5,45.5,29.94,North,5,0.0,0.0,86,0.04,,---,0.08,VWS V14.01,2013-03-13 12:14:00,
2013-03-13 05:20:00,49.5,45.5,29.94,North,5,0.0,0.0,86,0.04,,---,0.08,VWS V14.01,2013-03-13 12:20:00,
2013-03-13 05:26:00,49.3,45.3,29.94,North,5,0.0,0.0,86,0.04,,---,0.08,VWS V14.01,2013-03-13 12:26:00,
2013-03-13 05:32:00,49.3,45.3,29.94,North,5,0.0,0.0,86,0.04,,---,0.08,VWS V14.01,2013-03-13 12:32:00,
2013-03-13 05:38:00,49.3,45.3,29.94,North,5,0.0,0.0,86,0.04,,---,0.08,VWS V14.01,2013-03-13 12:38:00,
2013-03-13 05:44:00,49.3,45.6,29.94,North,5,0.0,0.0,87,0.04,,---,0.08,VWS V14.01,2013-03-13 12:44:00,
2013-03-13 05:50:00,49.3,45.6,29.94,ENE,60,0.0,0.0,87,0.04,,---,0.08,VWS V14.01,2013-03-13 12:50:00,
2013-03-13 05:56:00,49.3,45.6,29.94,NNE,32,0.0,2.7,87,0.04,,---,0.08,VWS V14.01,2013-03-13 12:56:00,
2013-03-13 06:02:00,49.3,45.6,29.94,NE,42,0.0,0.0,87,0.00,,---,0.08,VWS V14.01,2013-03-13 13:02:00,
2013-03-13 06:08:00,49.3,45.6,29.94,NE,42,0.0,0.0,87,0.00,,---,0.08,VWS V14.01,2013-03-13 13:08:00,
2013-03-13 06:14:00,49.3,45.6,29.94,NE,42,0.0,0.0,87,0.00,,---,0.08,VWS V14.01,2013-03-13 13:14:00,
2013-03-13 06:20:00,49.3,45.6,29.94,NE,42,0.0,0.0,87,0.00,,---,0.08,VWS V14.01,2013-03-13 13:20:00,
2013-03-13 06:26:00,49.3,45.3,29.94,NE,42,0.0,0.0,86,0.00,,---,0.08,VWS V14.01,2013-03-13 13:26:00,
2013-03-13 06:34:00,49.3,45.6,29.94,SSE,164,3.6,3.6,87,0.00,,---,0.08,VWS V14.01,2013-03-13 13:34:00,
2013-03-13 06:40:00,49.3,45.6,29.94,SSE,164,0.0,0.0,87,0.00,,---,0.08,VWS V14.01,2013-03-13 13:40:00,
2013-03-13 06:46:00,49.3,45.6,29.94,SSE,164,0.0,0.0,87,0.00,,---,0.08,VWS V14.01,2013-03-13 13:46:00,
2013-03-13 06:52:00,49.1,45.4,29.94,SSE,164,0.0,0.0,87,0.00,,---,0.08,VWS V14.01,2013-03-13 13:52:00,
2013-03-13 06:58:00,49.1,45.4,29.94,SSE,164,0.0,0.0,87,0.00,,---,0.08,VWS V14.01,2013-03-13 13:58:00,
2013-03-13 07:04:00,49.1,45.4,29.94,SSE,164,0.0,0.0,87,0.00,,---,0.08,VWS V14.01,2013-03-13 14:04:00,
2013-03-13 07:10:00,49.1,45.4,29.94,SSE,164,0.0,0.0,87,0.00,,---,0.08,VWS V14.01,2013-03-13 14:10:00,
2013-03-13 07:16:00,49.1,45.4,29.94,SSE,164,0.0,0.0,87,0.00,,---,0.08,VWS V14.01,2013-03-13 14:16:00,
2013-03-13 07:22:00,48.9,44.9,29.91,SSE,164,0.0,0.0,86,0.00,,---,0.08,VWS V14.01,2013-03-13 14:22:00,
2013-03-13 07:28:00,48.9,45.2,29.91,SSE,164,0.0,0.0,87,0.00,,---,0.08,VWS V14.01,2013-03-13 14:28:00,
2013-03-13 07:34:00,48.9,45.2,29.91,SSE,164,0.0,0.0,87,0.00,,---,0.08,VWS V14.01,2013-03-13 14:34:00,
2013-03-13 07:40:00,48.9,45.2,29.91,SSE,164,0.0,0.0,87,0.00,,---,0.08,VWS V14.01,2013-03-13 14:40:00,
2013-03-13 07:46:00,48.7,44.8,29.91,SSE,164,0.0,0.0,86,0.00,,---,0.08,VWS V14.01,2013-03-13 14:46:00,
2013-03-13 07:52:00,48.7,45.0,29.91,SSE,164,0.0,0.0,87,0.00,,---,0.08,VWS V14.01,2013-03-13 14:52:00,
2013-03-13 07:58:00,48.9,45.2,29.91,SSE,155,0.0,0.0,87,0.00,,---,0.08,VWS V14.01,2013-03-13 14:58:00,
2013-03-13 08:04:00,48.9,45.2,29.91,SSE,155,0.0,0.0,87,0.00,,---,0.08,VWS V14.01,2013-03-13 15:04:00,
2013-03-13 08:10:00,49.1,45.4,29.91,SSE,155,0.0,0.0,87,0.00,,---,0.08,VWS V14.01,2013-03-13 15:10:00,
2013-03-13 08:16:00,49.1,45.4,29.91,SSE,155,0.0,0.0,87,0.00,,---,0.08,VWS V14.01,2013-03-13 15:16:00,
2013-03-13 08:22:00,49.1,45.4,29.91,SSE,163,0.0,0.0,87,0.00,,---,0.08,VWS V14.01,2013-03-13 15:22:00,
2013-03-13 08:28:00,49.3,45.6,29.91,SSE,163,0.0,0.0,87,0.00,,---,0.08,VWS V14.01,2013-03-13 15:28:00,
2013-03-13 08:34:00,49.3,45.6,29.91,SSE,163,0.0,0.0,87,0.00,,---,0.08,VWS V14.01,2013-03-13 15:34:00,
2013-03-13 08:40:00,49.5,45.8,29.91,SSE,163,0.0,0.0,87,0.00,,---,0.08,VWS V14.01,2013-03-13 15:40:00,
2013-03-13 08:46:00,49.6,45.9,29.91,NNW,327,0.0,0.0,87,0.00,,---,0.08,VWS V14.01,2013-03-13 15:46:00,
2013-03-13 08:52:00,49.6,45.9,29.91,NNW,327,0.0,0.0,87,0.00,,---,0.08,VWS V14.01,2013-03-13 15:52:00,
2013-03-13 08:58:00,49.8,46.1,29.91,NNW,328,0.0,0.0,87,0.00,,---,0.08,VWS V14.01,2013-03-13 15:58:00,
2013-03-13 09:04:00,49.8,46.1,29.91,NNW,328,0.0,0.0,87,0.00,,---,0.08,VWS V14.01,2013-03-13 16:04:00,
2013-03-13 09:10:00,50.2,46.5,29.94,NNW,328,0.0,0.0,87,0.00,,---,0.08,VWS V14.01,2013-03-13 16:10:00,
2013-03-13 09:16:00,50.2,46.5,29.94,NNW,328,0.0,0.0,87,0.00,,---,0.08,VWS V14.01,2013-03-13 16:16:00,
2013-03-13 09:22:00,50.4,46.6,29.94,NNW,328,0.0,0.0,87,0.00,,---,0.08,VWS V14.01,2013-03-13 16:22:00,
2013-03-13 09:28:00,50.4,46.6,29.94,NNW,328,0.0,0.0,87,0.00,,---,0.08,VWS V14.01,2013-03-13 16:28:00,
2013-03-13 09:34:00,50.7,47.0,29.94,NNW,328,0.0,0.0,87,0.00,,---,0.08,VWS V14.01,2013-03-13 16:34:00,
2013-03-13 09:40:00,50.9,47.2,29.94,NNW,328,0.0,0.0,87,0.00,,---,0.08,VWS V14.01,2013-03-13 16:40:00,
2013-03-13 09:46:00,51.1,47.3,29.94,NNW,328,0.0,0.0,87,0.00,,---,0.08,VWS V14.01,2013-03-13 16:46:00,
2013-03-13 09:52:00,51.4,47.7,29.94,NNW,328,0.0,0.0,87,0.00,,---,0.08,VWS V14.01,2013-03-13 16:52:00,
2013-03-13 09:58:00,51.6,47.9,29.94,NNW,328,0.0,0.0,87,0.00,,---,0.08,VWS V14.01,2013-03-13 16:58:00,
2013-03-13 10:04:00,51.8,48.1,29.94,NNW,328,0.0,0.0,87,0.00,,---,0.08,VWS V14.01,2013-03-13 17:04:00,
2013-03-13 10:10:00,52.2,48.4,29.94,NNW,328,0.0,0.0,87,0.00,,---,0.08,VWS V14.01,2013-03-13 17:10:00,
2013-03-13 10:16:00,52.3,48.3,29.94,NNW,328,0.0,0.0,86,0.00,,---,0.08,VWS V14.01,2013-03-13 17:16:00,
2013-03-13 10:22:00,52.5,48.5,29.94,NNW,329,0.0,0.0,86,0.00,,---,0.08,VWS V14.01,2013-03-13 17:22:00,
2013-03-13 10:28:00,52.5,48.5,29.94,NNW,329,0.0,0.0,86,0.00,,---,0.08,VWS V14.01,2013-03-13 17:28:00,
2013-03-13 10:34:00,52.7,48.3,29.94,NNW,329,0.0,0.0,85,0.00,,---,0.08,VWS V14.01,2013-03-13 17:34:00,
2013-03-13 10:40:00,52.7,48.0,29.94,NNW,329,0.0,0.0,84,0.00,,---,0.08,VWS V14.01,2013-03-13 17:40:00,
2013-03-13 10:46:00,52.5,47.8,29.94,NNW,329,0.0,0.0,84,0.00,,---,0.08,VWS V14.01,2013-03-13 17:46:00,
2013-03-13 10:52:00,52.7,46.7,29.94,NNW,329,0.0,0.0,80,0.00,,---,0.08,VWS V14.01,2013-03-13 17:52:00,
2013-03-13 10:58:00,52.7,46.7,29.94,NNW,329,0.0,0.0,80,0.00,,---,0.08,VWS V14.01,2013-03-13 17:58:00,
2013-03-13 11:04:00,53.1,46.7,29.94,NNW,329,0.0,0.0,79,0.00,,---,0.08,VWS V14.01,2013-03-13 18:04:00,
2013-03-13 11:10:00,53.1,46.7,29.94,NNW,329,0.0,0.0,79,0.00,,---,0.08,VWS V14.01,2013-03-13 18:10:00,
2013-03-13 11:16:00,53.1,45.7,29.94,NNW,329,0.0,0.0,76,0.00,,---,0.08,VWS V14.01,2013-03-13 18:16:00,
2013-03-13 11:22:00,53.1,46.0,29.97,NNW,329,0.0,0.0,77,0.00,,---,0.08,VWS V14.01,2013-03-13 18:22:00,
2013-03-13 11:28:00,52.9,45.5,29.97,NNW,329,0.0,0.0,76,0.00,,---,0.08,VWS V14.01,2013-03-13 18:28:00,
2013-03-13 11:34:00,52.7,43.6,29.97,ESE,104,0.0,0.0,71,0.00,,---,0.08,VWS V14.01,2013-03-13 18:34:00,
2013-03-13 11:40:00,52.7,43.9,29.97,ESE,104,0.0,0.0,72,0.00,,---,0.08,VWS V14.01,2013-03-13 18:40:00,
2013-03-13 11:46:00,52.7,44.3,29.97,ESE,104,0.0,0.0,73,0.00,,---,0.08,VWS V14.01,2013-03-13 18:46:00,
2013-03-13 11:52:00,52.7,44.3,29.94,ESE,104,0.0,0.0,73,0.00,,---,0.08,VWS V14.01,2013-03-13 18:52:00,
2013-03-13 11:58:00,52.7,44.7,29.94,ESE,104,0.0,0.0,74,0.00,,---,0.08,VWS V14.01,2013-03-13 18:58:00,
2013-03-13 12:04:00,52.9,44.8,29.94,ESE,104,0.0,0.0,74,0.00,,---,0.08,VWS V14.01,2013-03-13 19:04:00,
2013-03-13 12:10:00,52.9,44.8,29.94,ESE,104,0.0,0.0,74,0.00,,---,0.08,VWS V14.01,2013-03-13 19:10:00,
2013-03-13 12:16:00,52.7,44.7,29.94,ESE,104,0.0,0.0,74,0.00,,---,0.08,VWS V14.01,2013-03-13 19:16:00,
2013-03-13 12:22:00,52.9,44.8,29.94,ESE,104,0.0,0.0,74,0.04,,---,0.12,VWS V14.01,2013-03-13 19:22:00,
2013-03-13 12:28:00,52.9,44.8,29.94,ESE,104,0.0,0.0,74,0.04,,---,0.12,VWS V14.01,2013-03-13 19:28:00,
2013-03-13 12:34:00,52.9,44.8,29.94,ESE,104,0.0,0.0,74,0.04,,---,0.12,VWS V14.01,2013-03-13 19:34:00,
2013-03-13 12:40:00,53.1,45.0,29.94,ESE,104,0.0,0.0,74,0.04,,---,0.12,VWS V14.01,2013-03-13 19:40:00,
2013-03-13 12:46:00,53.1,45.0,29.94,ESE,104,0.0,0.0,74,0.04,,---,0.12,VWS V14.01,2013-03-13 19:46:00,
2013-03-13 12:52:00,53.1,45.0,29.94,ESE,104,0.0,0.0,74,0.04,,---,0.12,VWS V14.01,2013-03-13 19:52:00,
2013-03-13 12:58:00,53.1,44.7,29.94,ESE,104,0.0,0.0,73,0.04,,---,0.12,VWS V14.01,2013-03-13 19:58:00,
2013-03-13 13:04:00,53.1,44.7,29.94,ESE,104,0.0,0.0,73,0.04,,---,0.12,VWS V14.01,2013-03-13 20:04:00,
2013-03-13 13:10:00,53.1,45.0,29.94,ESE,104,0.0,0.0,74,0.04,,---,0.12,VWS V14.01,2013-03-13 20:10:00,
2013-03-13 13:16:00,53.1,45.0,29.94,ESE,104,0.0,0.0,74,0.04,,---,0.12,VWS V14.01,2013-03-13 20:16:00,
2013-03-13 13:22:00,53.1,44.7,29.94,ESE,104,0.0,0.0,73,0.00,,---,0.12,VWS V14.01,2013-03-13 20:22:00,
2013-03-13 13:28:00,53.1,45.0,29.94,ESE,104,0.0,0.0,74,0.04,,---,0.16,VWS V14.01,2013-03-13 20:28:00,
2013-03-13 13:34:00,53.1,44.7,29.94,ESE,104,0.0,0.0,73,0.04,,---,0.16,VWS V14.01,2013-03-13 20:34:00,
2013-03-13 13:40:00,52.9,44.1,29.94,ESE,104,0.0,0.0,72,0.04,,---,0.16,VWS V14.01,2013-03-13 20:40:00,
2013-03-13 13:46:00,52.9,43.8,29.94,ESE,104,0.0,0.0,71,0.04,,---,0.16,VWS V14.01,2013-03-13 20:46:00,
2013-03-13 13:52:00,52.9,43.8,29.94,ESE,104,0.0,0.0,71,0.04,,---,0.16,VWS V14.01,2013-03-13 20:52:00,
2013-03-13 13:58:00,53.1,44.3,29.94,ESE,104,0.0,0.0,72,0.04,,---,0.16,VWS V14.01,2013-03-13 20:58:00,
2013-03-13 14:04:00,53.1,44.3,29.94,ESE,104,0.0,0.0,72,0.08,,---,0.20,VWS V14.01,2013-03-13 21:04:00,
2013-03-13 14:10:00,53.2,44.5,29.94,ESE,104,0.0,0.0,72,0.08,,---,0.20,VWS V14.01,2013-03-13 21:10:00,
2013-03-13 14:16:00,53.1,44.3,29.94,ESE,104,0.0,0.0,72,0.08,,---,0.20,VWS V14.01,2013-03-13 21:16:00,
2013-03-13 14:22:00,53.1,43.9,29.94,ESE,104,0.0,0.0,71,0.08,,---,0.20,VWS V14.01,2013-03-13 21:22:00,
2013-03-13 14:28:00,53.1,43.9,29.94,ESE,104,0.0,0.0,71,0.08,,---,0.20,VWS V14.01,2013-03-13 21:28:00,
2013-03-13 14:34:00,53.1,43.9,29.94,ESE,104,0.0,0.0,71,0.04,,---,0.20,VWS V14.01,2013-03-13 21:34:00,
2013-03-13 14:40:00,53.1,43.5,29.94,ESE,104,0.0,0.0,70,0.04,,---,0.20,VWS V14.01,2013-03-13 21:40:00,
2013-03-13 14:46:00,53.4,43.5,29.94,ESE,104,0.0,0.0,69,0.04,,---,0.20,VWS V14.01,2013-03-13 21:46:00,
2013-03-13 14:52:00,53.4,43.1,29.94,ESE,104,0.0,0.0,68,0.04,,---,0.20,VWS V14.01,2013-03-13 21:52:00,
2013-03-13 14:58:00,53.6,42.5,29.94,ESE,104,0.0,0.0,66,0.04,,---,0.20,VWS V14.01,2013-03-13 21:58:00,
2013-03-13 15:04:00,53.8,42.7,29.94,ESE,104,0.0,0.0,66,0.00,,---,0.20,VWS V14.01,2013-03-13 22:04:00,
2013-03-13 15:10:00,54.0,42.9,29.91,ESE,104,0.0,0.0,66,0.00,,---,0.20,VWS V14.01,2013-03-13 22:10:00,
2013-03-13 15:16:00,53.8,42.7,29.91,ESE,104,0.0,0.0,66,0.00,,---,0.20,VWS V14.01,2013-03-13 22:16:00,
2013-03-13 15:22:00,53.8,42.7,29.91,ESE,104,0.0,0.0,66,0.00,,---,0.20,VWS V14.01,2013-03-13 22:22:00,
2013-03-13 15:28:00,53.8,42.3,29.91,ESE,104,0.0,0.0,65,0.00,,---,0.20,VWS V14.01,2013-03-13 22:28:00,
2013-03-13 15:34:00,54.1,43.0,29.91,ESE,104,0.0,0.0,66,0.00,,---,0.20,VWS V14.01,2013-03-13 22:34:00,
2013-03-13 15:40:00,53.6,41.7,29.91,ESE,104,0.0,0.0,64,0.00,,---,0.20,VWS V14.01,2013-03-13 22:40:00,
2013-03-13 15:46:00,53.6,41.7,29.91,ESE,104,0.0,0.0,64,0.00,,---,0.20,VWS V14.01,2013-03-13 22:46:00,
2013-03-13 15:52:00,53.6,42.1,29.91,ESE,104,0.0,0.0,65,0.00,,---,0.20,VWS V14.01,2013-03-13 22:52:00,
2013-03-13 15:58:00,53.6,42.1,29.91,ESE,104,0.0,0.0,65,0.00,,---,0.20,VWS V14.01,2013-03-13 22:58:00,
2013-03-13 16:04:00,53.4,42.0,29.91,ESE,104,0.0,0.0,65,0.00,,---,0.20,VWS V14.01,2013-03-13 23:04:00,
2013-03-13 16:10:00,53.2,41.8,29.91,ESE,104,0.0,0.0,65,0.04,,---,0.24,VWS V14.01,2013-03-13 23:10:00,
2013-03-13 16:16:00,53.1,41.2,29.91,ESE,104,0.0,0.0,64,0.04,,---,0.24,VWS V14.01,2013-03-13 23:16:00,
2013-03-13 16:22:00,53.1,41.6,29.91,ESE,104,0.0,0.0,65,0.04,,---,0.24,VWS V14.01,2013-03-13 23:22:00,
2013-03-13 16:28:00,53.2,42.6,29.91,ESE,104,0.0,0.0,67,0.04,,---,0.24,VWS V14.01,2013-03-13 23:28:00,
2013-03-13 16:34:00,53.4,42.8,29.91,ESE,104,0.0,0.0,67,0.04,,---,0.24,VWS V14.01,2013-03-13 23:34:00,
2013-03-13 16:40:00,53.2,42.6,29.91,ESE,104,0.0,0.0,67,0.04,,---,0.24,VWS V14.01,2013-03-13 23:40:00,
2013-03-13 16:46:00,53.2,43.0,29.91,ESE,104,0.0,0.0,68,0.04,,---,0.24,VWS V14.01,2013-03-13 23:46:00,
2013-03-13 16:52:00,53.2,43.3,29.91,ESE,104,0.0,0.0,69,0.04,,---,0.24,VWS V14.01,2013-03-13 23:52:00,
2013-03-13 16:58:00,53.2,43.3,29.91,ESE,104,0.0,0.0,69,0.04,,---,0.24,VWS V14.01,2013-03-13 23:58:00,
2013-03-13 17:04:00,53.4,43.9,29.91,ESE,105,0.0,0.0,70,0.04,,---,0.24,VWS V14.01,2013-03-14 00:04:00,
2013-03-13 17:10:00,53.2,43.7,29.91,ESE,105,0.0,0.0,70,0.04,,---,0.24,VWS V14.01,2013-03-14 00:10:00,
2013-03-13 17:16:00,53.1,43.5,29.91,ESE,104,0.0,0.0,70,0.00,,---,0.24,VWS V14.01,2013-03-14 00:16:00,
2013-03-13 17:22:00,53.1,43.9,29.91,ESE,104,0.0,0.0,71,0.00,,---,0.24,VWS V14.01,2013-03-14 00:22:00,
2013-03-13 17:28:00,53.2,44.1,29.88,ESE,105,0.0,0.0,71,0.00,,---,0.24,VWS V14.01,2013-03-14 00:28:00,
2013-03-13 17:34:00,53.1,44.3,29.88,ESE,105,0.0,0.0,72,0.00,,---,0.24,VWS V14.01,2013-03-14 00:34:00,
2013-03-13 17:40:00,53.1,44.3,29.88,ESE,105,0.0,0.0,72,0.00,,---,0.24,VWS V14.01,2013-03-14 00:40:00,
2013-03-13 17:46:00,53.1,44.3,29.88,ESE,104,0.0,0.0,72,0.00,,---,0.24,VWS V14.01,2013-03-14 00:46:00,
2013-03-13 17:52:00,52.9,44.1,29.88,ESE,104,0.0,0.0,72,0.00,,---,0.24,VWS V14.01,2013-03-14 00:52:00,
2013-03-13 17:58:00,52.7,44.3,29.88,ESE,104,0.0,0.0,73,0.00,,---,0.24,VWS V14.01,2013-03-14 00:58:00,
2013-03-13 18:04:00,52.7,44.3,29.88,ESE,104,0.0,0.0,73,0.00,,---,0.24,VWS V14.01,2013-03-14 01:04:00,
2013-03-13 18:10:00,52.5,44.1,29.88,ESE,104,0.0,0.0,73,0.00,,---,0.24,VWS V14.01,2013-03-14 01:10:00,
2013-03-13 18:16:00,52.5,44.1,29.88,ESE,104,0.0,0.0,73,0.00,,---,0.24,VWS V14.01,2013-03-14 01:16:00,
2013-03-13 18:22:00,52.5,44.1,29.88,ESE,104,0.0,0.0,73,0.00,,---,0.24,VWS V14.01,2013-03-14 01:22:00,
2013-03-13 18:28:00,52.5,44.5,29.88,ESE,104,0.0,0.0,74,0.00,,---,0.24,VWS V14.01,2013-03-14 01:28:00,
2013-03-13 18:34:00,52.3,44.3,29.88,ESE,104,0.0,0.0,74,0.00,,---,0.24,VWS V14.01,2013-03-14 01:34:00,
2013-03-13 18:40:00,52.3,44.3,29.88,ESE,104,0.0,0.0,74,0.00,,---,0.24,VWS V14.01,2013-03-14 01:40:00,
2013-03-13 18:46:00,52.2,44.1,29.88,ESE,104,0.0,0.0,74,0.00,,---,0.24,VWS V14.01,2013-03-14 01:46:00,
2013-03-13 18:52:00,52.0,44.3,29.88,ESE,104,0.0,0.0,75,0.00,,---,0.24,VWS V14.01,2013-03-14 01:52:00,
2013-03-13 18:58:00,52.0,44.3,29.88,ESE,104,0.0,0.0,75,0.04,,---,0.28,VWS V14.01,2013-03-14 01:58:00,
2013-03-13 19:04:00,51.8,44.5,29.88,ESE,105,0.0,0.0,76,0.04,,---,0.28,VWS V14.01,2013-03-14 02:04:00,
2013-03-13 19:10:00,51.8,44.5,29.88,ESE,104,0.0,0.0,76,0.04,,---,0.28,VWS V14.01,2013-03-14 02:10:00,
2013-03-13 19:16:00,51.8,44.8,29.88,ESE,104,0.0,0.0,77,0.04,,---,0.28,VWS V14.01,2013-03-14 02:16:00,
2013-03-13 19:22:00,51.8,44.8,29.85,ESE,104,0.0,0.0,77,0.04,,---,0.28,VWS V14.01,2013-03-14 02:22:00,
2013-03-13 19:28:00,51.6,44.7,29.85,ESE,104,0.0,0.0,77,0.04,,---,0.28,VWS V14.01,2013-03-14 02:28:00,
2013-03-13 19:34:00,51.6,45.0,29.85,ESE,104,0.0,0.0,78,0.04,,---,0.28,VWS V14.01,2013-03-14 02:34:00,
2013-03-13 19:40:00,51.6,45.3,29.85,ESE,104,0.0,0.0,79,0.04,,---,0.28,VWS V14.01,2013-03-14 02:40:00,
2013-03-13 19:46:00,51.6,45.7,29.85,ESE,104,0.0,0.0,80,0.04,,---,0.28,VWS V14.01,2013-03-14 02:46:00,
2013-03-13 19:52:00,51.4,45.5,29.85,ESE,104,0.0,0.0,80,0.04,,---,0.28,VWS V14.01,2013-03-14 02:52:00,
2013-03-13 19:58:00,51.4,45.5,29.85,ESE,104,0.0,0.0,80,0.00,,---,0.28,VWS V14.01,2013-03-14 02:58:00,
2013-03-13 20:04:00,51.3,45.6,29.85,ESE,104,0.0,0.0,81,0.00,,---,0.28,VWS V14.01,2013-03-14 03:04:00,
2013-03-13 20:10:00,51.3,45.6,29.85,ESE,104,0.0,0.0,81,0.00,,---,0.28,VWS V14.01,2013-03-14 03:10:00,
2013-03-13 20:16:00,51.3,45.3,29.85,ESE,104,0.0,0.0,80,0.00,,---,0.28,VWS V14.01,2013-03-14 03:16:00,
2013-03-13 20:22:00,51.3,45.3,29.85,ESE,104,0.0,0.0,80,0.00,,---,0.28,VWS V14.01,2013-03-14 03:22:00,
2013-03-13 20:28:00,51.1,45.5,29.85,ESE,104,0.0,0.0,81,0.00,,---,0.28,VWS V14.01,2013-03-14 03:28:00,
2013-03-13 20:34:00,51.1,45.5,29.85,ESE,104,0.0,0.0,81,0.00,,---,0.28,VWS V14.01,2013-03-14 03:34:00,
2013-03-13 20:40:00,51.1,45.5,29.88,ESE,104,0.0,0.0,81,0.00,,---,0.28,VWS V14.01,2013-03-14 03:40:00,
2013-03-13 20:46:00,50.9,45.3,29.88,ESE,104,0.0,0.0,81,0.00,,---,0.28,VWS V14.01,2013-03-14 03:46:00,
2013-03-13 20:52:00,50.9,45.3,29.88,ESE,104,0.0,0.0,81,0.00,,---,0.28,VWS V14.01,2013-03-14 03:52:00,
2013-03-13 20:58:00,50.7,45.1,29.88,ESE,104,0.0,0.0,81,0.00,,---,0.28,VWS V14.01,2013-03-14 03:58:00,
2013-03-13 21:00:00,50.7,45.1,29.88,ESE,104,0.0,0.0,81,0.00,,---,0.28,VWS V14.01,2013-03-14 04:00:00,
2013-03-13 21:02:00,50.7,45.1,29.88,ESE,104,0.0,0.0,81,0.00,,---,0.28,VWS V14.01,2013-03-14 04:02:00,
2013-03-13 21:08:00,50.7,45.1,29.85,ESE,104,0.0,0.0,81,0.00,,---,0.28,VWS V14.01,2013-03-14 04:08:00,
2013-03-13 21:14:00,50.5,44.9,29.85,ESE,104,0.0,0.0,81,0.00,,---,0.28,VWS V14.01,2013-03-14 04:14:00,
2013-03-13 21:20:00,50.5,44.9,29.85,ESE,104,0.0,0.0,81,0.00,,---,0.28,VWS V14.01,2013-03-14 04:20:00,
2013-03-13 21:26:00,50.5,44.9,29.85,ESE,105,0.0,0.0,81,0.00,,---,0.28,VWS V14.01,2013-03-14 04:26:00,
2013-03-13 21:32:00,50.4,44.8,29.85,ESE,104,0.0,0.0,81,0.00,,---,0.28,VWS V14.01,2013-03-14 04:32:00,
2013-03-13 21:38:00,50.4,44.8,29.85,ESE,105,0.0,0.0,81,0.00,,---,0.28,VWS V14.01,2013-03-14 04:38:00,
2013-03-13 21:44:00,50.4,44.8,29.85,ESE,104,0.0,0.0,81,0.00,,---,0.28,VWS V14.01,2013-03-14 04:44:00,
2013-03-13 21:50:00,50.2,44.6,29.85,ESE,104,0.0,0.0,81,0.00,,---,0.28,VWS V14.01,2013-03-14 04:50:00,
2013-03-13 21:56:00,50.2,44.6,29.88,ESE,104,0.0,0.0,81,0.00,,---,0.28,VWS V14.01,2013-03-14 04:56:00,
2013-03-13 22:02:00,50.2,44.6,29.88,ESE,105,0.0,0.0,81,0.00,,---,0.28,VWS V14.01,2013-03-14 05:02:00,
2013-03-13 22:08:00,50.2,44.9,29.85,ESE,105,0.0,0.0,82,0.00,,---,0.28,VWS V14.01,2013-03-14 05:08:00,
2013-03-13 22:14:00,50.2,44.9,29.85,ESE,104,0.0,0.0,82,0.00,,---,0.28,VWS V14.01,2013-03-14 05:14:00,
2013-03-13 22:20:00,50.0,44.4,29.85,ESE,104,0.0,0.0,81,0.00,,---,0.28,VWS V14.01,2013-03-14 05:20:00,
2013-03-13 22:26:00,49.8,44.5,29.85,ESE,104,0.0,0.0,82,0.00,,---,0.28,VWS V14.01,2013-03-14 05:26:00,
2013-03-13 22:32:00,49.6,44.4,29.85,ESE,104,0.0,0.0,82,0.00,,---,0.28,VWS V14.01,2013-03-14 05:32:00,
2013-03-13 22:38:00,49.6,44.4,29.85,ESE,104,0.0,0.0,82,0.00,,---,0.28,VWS V14.01,2013-03-14 05:38:00,
2013-03-13 22:44:00,49.5,44.2,29.85,ESE,104,0.0,0.0,82,0.00,,---,0.28,VWS V14.01,2013-03-14 05:44:00,
2013-03-13 22:50:00,49.5,44.2,29.85,ESE,104,0.0,0.0,82,0.00,,---,0.28,VWS V14.01,2013-03-14 05:50:00,
2013-03-13 22:56:00,49.3,44.0,29.85,ESE,104,0.0,0.0,82,0.00,,---,0.28,VWS V14.01,2013-03-14 05:56:00,
2013-03-13 23:02:00,49.3,44.0,29.85,ESE,104,0.0,0.0,82,0.00,,---,0.28,VWS V14.01,2013-03-14 06:02:00,
2013-03-13 23:08:00,49.3,44.0,29.85,ESE,104,0.0,0.0,82,0.00,,---,0.28,VWS V14.01,2013-03-14 06:08:00,
2013-03-13 23:14:00,49.3,44.0,29.85,ESE,104,0.0,0.0,82,0.00,,---,0.28,VWS V14.01,2013-03-14 06:14:00,
2013-03-13 23:20:00,49.3,44.0,29.85,ESE,104,0.0,0.0,82,0.00,,---,0.28,VWS V14.01,2013-03-14 06:20:00,
2013-03-13 23:26:00,49.3,44.0,29.85,ESE,104,0.0,0.0,82,0.00,,---,0.28,VWS V14.01,2013-03-14 06:26:00,
2013-03-13 23:32:00,49.3,44.3,29.85,ESE,104,0.0,0.0,83,0.00,,---,0.28,VWS V14.01,2013-03-14 06:32:00,
2013-03-13 23:38:00,49.3,44.3,29.85,ESE,104,0.0,0.0,83,0.00,,---,0.28,VWS V14.01,2013-03-14 06:38:00,
2013-03-13 23:44:00,49.3,44.3,29.85,ESE,104,0.0,0.0,83,0.00,,---,0.28,VWS V14.01,2013-03-14 06:44:00,
2013-03-13 23:50:00,49.3,44.3,29.85,ESE,105,0.0,0.0,83,0.00,,---,0.28,VWS V14.01,2013-03-14 06:50:00,
2013-03-13 23:56:00,49.3,44.3,29.85,ESE,104,0.0,0.0,83,0.00,,---,0.28,VWS V14.01,2013-03-14 06:56:00,